Location: Bucquoy
(50.1391°N, 2.7097°E)
Time: 23:48:14
(UTC+00:00)

Cosmos 1674 Rocket - Pass Details

Date: 06 May 2021
Orbit: 602 x 631 km, 82.5° (Epoch: 21 June)

Event Time Altitude Azimuth Distance (km) Brightness Sun altitude
Exits shadow 02:14:49 27° 230° (SW) 1,198 4.4 -15.7°
Maximum altitude 02:16:47 45° 286° (WNW) 861 4.1 -15.5°
Drops below altitude 10° 02:21:06 10° 359° (N) 2,021 7.0 -15.1°
Sets 02:23:26 0° 6° (N) 2,936 8.0 -14.8°
